Location: *
(60.1759°S, 155.0663°W)
Time: 23:45:09
(UTC+00:00)

RESURS DK-1 - Pass Details

Date: 17 September 2019
Orbit: 558 x 560 km, 69.9° (Epoch: 22 October)

Event Time Altitude Azimuth Distance (km) Brightness Sun altitude
Exits shadow 15:23:25 - 243° (WSW) 2,292 5.0 -8.3°
Reaches altitude 10° 15:24:39 10° 234° (SW) 1,891 4.6 -8.1°
Maximum altitude 15:28:00 22° 182° (S) 1,286 4.3 -7.7°
Drops below altitude 10° 15:31:20 10° 130° (SE) 1,893 6.1 -7.3°
Sets 15:33:58 0° 114° (ESE) 2,791 7.7 -7.0°
